Location: Vancouver
(49.2500°N, 123.1330°W)
Time: 02:12:32
(UTC-07:00)

Cosmos 676 Rocket - Visible Passes

Search period start: 26 March 2017 00:00
Search period end: 05 April 2017 00:00
Orbit: 754 x 785 km, 74.0° (Epoch: 24 March)

Date Brightness Start Highest point End Pass type
(mag) Time Alt. Az. Time Alt. Az. Time Alt. Az.
26 Mar 6.0 00:26:16 10° NNW 00:28:32 25° NW 00:28:32 25° NW visible
26 Mar 5.8 22:08:17 10° N 22:12:07 19° NE 22:12:24 19° NE visible
26 Mar 5.4 23:49:36 10° NNW 23:52:42 36° NNW 23:52:42 36° NNW visible
27 Mar 6.1 21:32:21 10° N 21:35:04 14° NE 21:36:35 13° ENE visible
27 Mar 4.9 23:13:02 10° NNW 23:16:53 44° N 23:16:53 44° N visible
28 Mar 6.5 00:55:56 10° NW 00:57:11 15° WNW 00:57:11 15° WNW visible
28 Mar 4.9 22:36:35 10° NNW 22:41:05 39° NE 22:41:05 39° NE visible
29 Mar 5.9 00:18:51 10° NW 00:21:23 25° WNW 00:21:23 25° WNW visible
29 Mar 5.2 22:00:14 10° N 22:04:47 27° NE 22:05:18 27° ENE visible
29 Mar 5.2 23:42:00 10° NNW 23:45:37 40° NW 23:45:37 40° NW visible
30 Mar 5.7 21:24:01 10° N 21:27:51 19° NE 21:29:33 17° ENE visible
30 Mar 4.3 23:05:20 10° NNW 23:09:51 64° NNW 23:09:51 64° NNW visible
31 Mar 6.6 00:49:19 10° WNW 00:50:09 12° WNW 00:50:09 12° WNW visible
31 Mar 6.1 20:48:03 10° N 20:50:48 14° NE 20:53:32 10° ENE visible
31 Mar 4.1 22:28:46 10° NNW 22:34:05 61° ENE 22:34:07 61° ENE visible
01 Apr 6.1 00:11:40 10° NW 00:14:26 20° WNW 00:14:26 20° WNW visible
01 Apr 4.6 21:52:18 10° NNW 21:57:21 40° ENE 21:58:25 36° E visible
01 Apr 5.3 23:34:35 10° NW 23:38:43 34° W 23:38:43 34° W visible
02 Apr 5.2 21:15:57 10° N 21:20:31 28° NE 21:22:44 21° E visible
02 Apr 4.4 22:57:44 10° NNW 23:02:58 56° WSW 23:03:03 55° WSW visible
03 Apr 5.7 20:39:44 10° N 20:43:35 20° NE 20:47:05 11° E visible
03 Apr 4.0 22:21:03 10° NNW 22:26:26 87° WSW 22:27:24 61° SSE visible
04 Apr 6.4 00:05:05 10° WNW 00:07:41 14° W 00:07:43 14° W visible
04 Apr 4.1 21:44:29 10° NNW 21:49:49 61° ENE 21:51:47 37° SE visible
04 Apr 5.8 23:27:24 10° NW 23:31:26 22° W 23:32:06 22° WSW visible
